| time (UTC) | temp F | wind direction | speed MPH | gust MPH | rain 1hr in | rain 24hr in | rain mn in | humidity % | barometer mb |
| 20260831024548 | 55 | 244 | 0.0 | 3.0 | 0.00 | 0.61 | 0.00 | 96 | 1002.8 |
| 20260831023014 | 55 | 228 | 1.0 | 6.0 | 0.00 | 0.61 | 0.00 | 96 | 1002.7 |
| 20260831021532 | 55 | 250 | 0.0 | 3.0 | 0.00 | 0.61 | 0.00 | 96 | 1002.6 |
| 20260831020013 | 55 | 267 | 0.0 | 2.0 | 0.00 | 0.61 | 0.00 | 96 | 1002.6 |
| 20260831014529 | 55 | 246 | 1.0 | 3.0 | 0.00 | 0.62 | 0.00 | 96 | 1002.5 |
| 20260831013010 | 55 | 296 | 0.0 | 4.0 | 0.00 | 0.62 | 0.00 | 96 | 1002.6 |
| 20260831011518 | 55 | 288 | 1.0 | 4.0 | 0.00 | 0.62 | 0.00 | 96 | 1002.6 |
| 20260831010150 | 55 | 292 | 2.0 | 3.0 | 0.00 | 0.62 | 0.00 | 96 | 1002.6 |
| 20260831004502 | 55 | 302 | 0.0 | 2.0 | 0.00 | 0.62 | 0.00 | 96 | 1002.4 |
| 20260831003106 | 55 | 302 | 1.0 | 3.0 | 0.00 | 0.62 | 0.00 | 96 | 1002.4 |
| 20260831001601 | 55 | 298 | 0.0 | 0.0 | 0.00 | 0.62 | 0.00 | 96 | 1002.4 |
| 20260831000109 | 55 | 298 | 0.0 | 0.0 | 0.00 | 0.62 | 0.00 | 96 | 1002.3 |
| 20260830234613 | 56 | 298 | 0.0 | 0.0 | 0.00 | 0.62 | 0.00 | 96 | 1002.3 |
| 20260830233109 | 56 | 298 | 0.0 | 3.0 | 0.00 | 0.62 | 0.00 | 96 | 1002.4 |
| 20260830231606 | 56 | 288 | 1.0 | 4.0 | 0.00 | 0.62 | 0.00 | 96 | 1002.4 |
| 20260830230114 | 56 | 91 | 0.0 | 0.0 | 0.00 | 0.62 | 0.00 | 96 | 1002.4 |
| 20260830224551 | 56 | 91 | 0.0 | 0.0 | 0.00 | 0.62 | 0.62 | 96 | 1002.5 |
| 20260830223112 | 56 | 91 | 0.0 | 0.0 | 0.00 | 0.62 | 0.62 | 96 | 1002.5 |
| 20260830221551 | 56 | 91 | 0.0 | 0.0 | 0.00 | 0.62 | 0.62 | 96 | 1002.7 |
| 20260830220057 | 56 | 91 | 0.0 | 0.0 | 0.00 | 0.62 | 0.62 | 96 | 1002.7 |
| 20260830214558 | 55 | 91 | 0.0 | 0.0 | 0.00 | 0.62 | 0.62 | 96 | 1002.7 |
| 20260830213114 | 55 | 91 | 0.0 | 0.0 | 0.00 | 0.62 | 0.62 | 96 | 1002.7 |
| 20260830211605 | 55 | 91 | 0.0 | 0.0 | 0.00 | 0.62 | 0.62 | 95 | 1002.6 |
| 20260830210114 | 55 | 91 | 0.0 | 0.0 | 0.00 | 0.62 | 0.62 | 95 | 1002.5 |
| 20260830204604 | 56 | 91 | 0.0 | 1.0 | 0.00 | 0.62 | 0.62 | 95 | 1002.5 |
| 20260830203053 | 56 | 91 | 0.0 | 0.0 | 0.00 | 0.62 | 0.62 | 95 | 1002.6 |
| 20260830201602 | 57 | 91 | 0.0 | 0.0 | 0.00 | 0.62 | 0.62 | 95 | 1002.7 |
| 20260830200043 | 57 | 91 | 0.0 | 2.0 | 0.00 | 0.62 | 0.62 | 95 | 1002.7 |
| 20260830194535 | 58 | 91 | 0.0 | 2.0 | 0.00 | 0.62 | 0.62 | 95 | 1002.6 |
| 20260830193043 | 58 | 107 | 0.0 | 0.0 | 0.00 | 0.62 | 0.62 | 95 | 1002.5 |
| 20260830191535 | 58 | 125 | 0.0 | 3.0 | 0.00 | 0.62 | 0.62 | 95 | 1002.6 |
| 20260830190138 | 58 | 123 | 0.0 | 2.0 | 0.00 | 0.62 | 0.62 | 95 | 1002.7 |
| 20260830184557 | 58 | 111 | 0.0 | 1.0 | 0.00 | 0.62 | 0.62 | 95 | 1002.8 |
| 20260830183113 | 58 | 111 | 0.0 | 1.0 | 0.00 | 0.62 | 0.62 | 95 | 1002.8 |
| 20260830181608 | 58 | 75 | 0.0 | 2.0 | 0.00 | 0.62 | 0.62 | 94 | 1002.8 |
| 20260830180139 | 58 | 98 | 0.0 | 2.0 | 0.00 | 0.62 | 0.62 | 94 | 1002.8 |
| 20260830174529 | 58 | 111 | 0.0 | 2.0 | 0.00 | 0.62 | 0.62 | 94 | 1002.9 |
| 20260830173059 | 59 | 74 | 0.0 | 4.0 | 0.01 | 0.62 | 0.62 | 94 | 1003.1 |
| 20260830171602 | 59 | 61 | 0.0 | 0.0 | 0.02 | 0.62 | 0.62 | 93 | 1003.2 |
| 20260830170104 | 59 | 19 | 1.0 | 3.0 | 0.02 | 0.62 | 0.62 | 93 | 1003.0 |
| 20260830164537 | 58 | 355 | 1.0 | 4.0 | 0.12 | 0.62 | 0.62 | 93 | 1003.1 |
| 20260830163009 | 59 | 204 | 2.0 | 4.0 | 0.22 | 0.61 | 0.61 | 92 | 1003.3 |
| 20260830161505 | 59 | 132 | 0.0 | 0.0 | 0.21 | 0.61 | 0.61 | 92 | 1003.3 |
| 20260830160109 | 60 | 132 | 0.0 | 6.0 | 0.21 | 0.61 | 0.61 | 90 | 1003.3 |
| 20260830154601 | 61 | 186 | 3.0 | 6.0 | 0.10 | 0.50 | 0.50 | 90 | 1003.4 |
| 20260830153106 | 62 | 71 | 4.0 | 9.0 | 0.00 | 0.39 | 0.39 | 87 | 1003.0 |
| 20260830151616 | 63 | 59 | 0.0 | 6.0 | 0.00 | 0.39 | 0.39 | 85 | 1003.0 |
| 20260830150114 | 64 | 101 | 0.0 | 7.0 | 0.00 | 0.39 | 0.39 | 85 | 1003.1 |
| 20260830144523 | 63 | 24 | 3.0 | 7.0 | 0.00 | 0.39 | 0.39 | 88 | 1003.2 |
| 20260830143142 | 63 | 156 | 0.0 | 5.0 | 0.00 | 0.39 | 0.39 | 83 | 1003.5 |
| 20260830141503 | 64 | 219 | 0.0 | 4.0 | 0.00 | 0.39 | 0.39 | 84 | 1003.5 |
| 20260830140125 | 63 | 217 | 0.0 | 3.0 | 0.00 | 0.39 | 0.39 | 84 | 1003.6 |
| 20260830134510 | 63 | 293 | 1.0 | 4.0 | 0.00 | 0.39 | 0.39 | 86 | 1003.6 |
| 20260830133131 | 64 | 238 | 1.0 | 4.0 | 0.00 | 0.39 | 0.39 | 89 | 1003.7 |
| 20260830131507 | 63 | 279 | 1.0 | 4.0 | 0.00 | 0.39 | 0.39 | 88 | 1003.7 |
| 20260830130148 | 62 | 252 | 2.0 | 5.0 | 0.00 | 0.39 | 0.39 | 91 | 1003.9 |
| 20260830124558 | 62 | 222 | 2.0 | 7.0 | 0.00 | 0.39 | 0.39 | 93 | 1003.9 |
| 20260830123021 | 61 | 355 | 0.0 | 3.0 | 0.01 | 0.39 | 0.39 | 94 | 1003.9 |
| 20260830121515 | 61 | 335 | 1.0 | 4.0 | 0.02 | 0.39 | 0.39 | 95 | 1003.9 |
| 20260830120131 | 61 | 322 | 0.0 | 3.0 | 0.07 | 0.39 | 0.39 | 96 | 1003.9 |
| 20260830114510 | 61 | 74 | 0.0 | 3.0 | 0.07 | 0.39 | 0.39 | 96 | 1003.8 |
| 20260830113150 | 59 | 73 | 0.0 | 3.0 | 0.06 | 0.39 | 0.39 | 97 | 1003.9 |
| 20260830111511 | 58 | 340 | 0.0 | 3.0 | 0.05 | 0.37 | 0.37 | 96 | 1004.1 |
| 20260830110147 | 58 | 119 | 1.0 | 4.0 | 0.00 | 0.32 | 0.32 | 96 | 1004.1 |
| 20260830104505 | 58 | 103 | 1.0 | 4.0 | 0.00 | 0.32 | 0.32 | 96 | 1004.2 |
| 20260830103116 | 58 | 101 | 1.0 | 6.0 | 0.01 | 0.32 | 0.32 | 97 | 1004.2 |
| 20260830101511 | 57 | 262 | 1.0 | 6.0 | 0.01 | 0.32 | 0.32 | 96 | 1004.2 |
| 20260830100003 | 57 | 360 | 1.0 | 4.0 | 0.02 | 0.32 | 0.32 | 96 | 1004.3 |
| 20260830094529 | 57 | 28 | 1.0 | 4.0 | 0.04 | 0.32 | 0.32 | 96 | 1004.3 |
| 20260830093124 | 57 | 106 | 1.0 | 6.0 | 0.03 | 0.31 | 0.31 | 96 | 1004.4 |
| 20260830091502 | 57 | 69 | 1.0 | 3.0 | 0.03 | 0.31 | 0.31 | 97 | 1004.4 |
| 20260830090110 | 56 | 67 | 1.0 | 5.0 | 0.02 | 0.30 | 0.30 | 96 | 1004.4 |
| 20260830084553 | 56 | 130 | 2.0 | 7.0 | 0.01 | 0.28 | 0.28 | 96 | 1004.5 |
| 20260830083110 | 56 | 96 | 1.0 | 4.0 | 0.01 | 0.28 | 0.28 | 96 | 1004.5 |
| 20260830081602 | 56 | 54 | 1.0 | 4.0 | 0.01 | 0.28 | 0.28 | 96 | 1004.4 |
| 20260830080119 | 56 | 75 | 1.0 | 3.0 | 0.00 | 0.28 | 0.28 | 96 | 1004.3 |
| 20260830074623 | 56 | 155 | 1.0 | 6.0 | 0.00 | 0.28 | 0.28 | 96 | 1004.3 |
| 20260830073122 | 56 | 98 | 0.0 | 5.0 | 0.00 | 0.28 | 0.28 | 96 | 1004.3 |
| 20260830071600 | 55 | 57 | 1.0 | 4.0 | 0.00 | 0.28 | 0.28 | 96 | 1004.3 |
| 20260830070116 | 55 | 63 | 1.0 | 3.0 | 0.00 | 0.28 | 0.28 | 96 | 1004.3 |
| 20260830064603 | 55 | 76 | 1.0 | 3.0 | 0.02 | 0.28 | 0.28 | 96 | 1004.4 |
| 20260830063125 | 55 | 79 | 0.0 | 3.0 | 0.09 | 0.28 | 0.28 | 96 | 1004.3 |
| 20260830061636 | 55 | 73 | 0.0 | 3.0 | 0.17 | 0.28 | 0.28 | 96 | 1004.3 |
| 20260830060120 | 55 | 148 | 2.0 | 5.0 | 0.18 | 0.28 | 0.28 | 96 | 1004.3 |
| 20260830054555 | 55 | 55 | 1.0 | 3.0 | 0.17 | 0.26 | 0.26 | 96 | 1003.8 |
| 20260830053112 | 55 | 293 | 0.0 | 2.0 | 0.09 | 0.18 | 0.18 | 95 | 1004.2 |
| 20260830051555 | 55 | 293 | 0.0 | 3.0 | 0.02 | 0.10 | 0.10 | 95 | 1004.2 |
| 20260830050112 | 55 | 93 | 0.0 | 0.0 | 0.01 | 0.09 | 0.09 | 95 | 1004.3 |
| 20260830044544 | 55 | 70 | 0.0 | 3.0 | 0.01 | 0.09 | 0.09 | 95 | 1004.1 |
| 20260830043014 | 55 | 69 | 0.0 | 4.0 | 0.02 | 0.09 | 0.09 | 95 | 1004.2 |
| 20260830041534 | 55 | 80 | 1.0 | 4.0 | 0.02 | 0.09 | 0.09 | 95 | 1004.2 |
| 20260830040052 | 55 | 59 | 1.0 | 3.0 | 0.06 | 0.09 | 0.09 | 95 | 1004.0 |
| 20260830034533 | 55 | 79 | 1.0 | 3.0 | 0.06 | 0.09 | 0.09 | 95 | 1004.0 |
| 20260830033015 | 55 | 360 | 2.0 | 4.0 | 0.06 | 0.08 | 0.08 | 95 | 1003.9 |
| 20260830031531 | 55 | 67 | 1.0 | 3.0 | 0.05 | 0.06 | 0.06 | 95 | 1004.0 |
| 20260830030151 | 55 | 86 | 0.0 | 2.0 | 0.02 | 0.03 | 0.03 | 94 | 1004.2 |